Regional Weather Roundup
Issued by NWS Sioux Falls, SD

Home | Current Version | Previous Version | Text Only | Print | Product List | Glossary On
Versions: 1 2 3 4 5 6 7 8 9 10 11 12 13 14 15 16 17 18 19 20 21 22 23 24 25 26 27 28 29 30 31 32 33 34 35 36 37 38 39 40 41 42 43 44 45 46 47 48 49 50
000
ASUS43 KFSD 020210
RWRFSD

WEATHER ROUNDUP FOR SE SOUTH DAKOTA/SW MINNESOTA/NW IOWA
NATIONAL WEATHER SERVICE SIOUX FALLS SD
900 PM CDT WED JUL 01 2015

NOTE: "FAIR" INDICATES FEW OR NO CLOUDS BELOW 12,000 FEET WITH NO
SIGNIFICANT WEATHER AND OR OBSTRUCTIONS TO VISIBILITY.


SDZ038>040-050-052>070-020300-
SOUTHEAST SOUTH DAKOTA

CITY           SKY/WX    TMP DP  RH WIND       PRES   REMARKS
BROOKINGS      MOCLDY    66  55  68 E10       29.98S
CHAMBERLAIN    CLEAR     74  67  80 E7        29.92R
HURON          PTCLDY    70  66  87 SE6       29.92S
MADISON        FAIR      68  59  73 SE7       29.96S
MITCHELL       CLEAR     73  66  78 E7        29.94R
SIOUX FALLS    CLOUDY    70  56  61 E12       29.95R
WINNER         MOCLDY    78  65  63 E6        29.92S
YANKTON        PTCLDY    72  64  78 E9        29.91S
$$

MNZ071-072-080-081-089-090-097-098-020300-
SOUTHWEST MINNESOTA

CITY           SKY/WX    TMP DP  RH WIND       PRES   REMARKS
FAIRMONT       PTCLDY    63  54  72 NE5       30.00R
JACKSON        MOCLDY    64  55  72 E7        30.00F
LUVERNE        PTCLDY    70  57  64 E8        29.97S
MARSHALL       MOCLDY    66  52  59 SE9       29.97S
MONTEVIDEO     CLEAR     63  55  77 SE5       29.99S
PIPESTONE      MOCLDY    66  55  68 SE7       29.98R
REDWOOD FALLS  PTCLDY    64  56  75 SE5       29.99S
TRACY          MOCLDY    66  56  70 E6        29.99S
WINDOM         MOCLDY    64  55  72 E5        30.00S
WORTHINGTON    CLOUDY    64  52  63 E9        29.99S
$$

IAZ001>003-012>014-020>022-031-032-NEZ013-014-SDZ071-020300-
NORTHWEST IOWA

CITY           SKY/WX    TMP DP  RH WIND       PRES   REMARKS
CHEROKEE       MOCLDY    67  56  69 E7        29.95F
DENISON        CLOUDY    70  63  78 E10       29.92S
ESTHERVILLE    CLOUDY    62  55  77 E7        29.99S
LE MARS        CLEAR     70  61  73 E8G14     29.95S
ORANGE CITY    CLEAR     66  55  68 E7        29.95S
SHELDON        CLEAR     66  57  72 E6        29.96S
SIOUX CITY     CLOUDY    73  63  70 E9        29.92S
SPENCER        CLOUDY    65  55  70 E7        29.98S
STORM LAKE     CLOUDY    66  57  72 E9        29.98R
$$

ABBREVIATIONS USED IN REMARKS
   TC - TEMPERATURE IN CELSIUS
  WCI - WIND CHILL INDEX
   HX - HEAT INDEX
  VSB - VISIBILITY



USA.gov is the U.S. government's official web portal to all federal, state and local government web resources and services.